London-Corbin, KY

5:34 PM EDT on April 25, 2017 (GMT -0400)
London-Corbin / McKee

Weather History for KLOZ - September, 2013

Change the Weather History Date:

Saturday, September 21, 2013

  Actual Average Record
Temperature  
Mean Temperature 63 °F 66 °F  
Max Temperature 72 °F 78 °F 93 °F (1955)
Min Temperature 54 °F 55 °F 35 °F (1956)
Degree Days  
Heating Degree Days 2 2  
Month to date heating degree days 9 15  
Since 1 July heating degree days 9 16  
Cooling Degree Days 0 3  
Month to date cooling degree days 138 120  
Year to date cooling degree days 1030 1144  
Growing Degree Days 14 (Base 50)    
Moisture  
Dew Point 62 °F    
Average Humidity 75    
Maximum Humidity 93    
Minimum Humidity 57    
Precipitation  
Precipitation 1.27 in 0.11 in 2.37 in (1979)
Month to date precipitation 2.24 2.35  
Year to date precipitation 43.28  
Sea Level Pressure  
Sea Level Pressure 29.80 in    
Wind  
Wind Speed 3 mph (WNW)    
Max Wind Speed 16 mph    
Max Gust Speed 25 mph    
Visibility 7 miles    
Events Rain    
T = Trace of Precipitation, MM = Missing Value Source: NWS Daily Summary

Daily Weather History Graph

Daily Weather History Graph

Search for Another Location

Airport or City:

Trip Planner

Search our weather history database for the weather conditions in past years. The results will help you decide how hot, cold, wet, or windy it might be!

Date:

Astronomy

Sep. 21, 2013 Rise Set
Actual Time 7:23 AM EDT 7:34 PM EDT
Civil Twilight 6:57 AM EDT 8:00 PM EDT
Nautical Twilight 6:27 AM EDT 8:30 PM EDT
Astronomical Twilight 5:56 AM EDT 9:01 PM EDT
Moon 8:49 PM EDT (9/21) 9:36 AM EDT (9/21)
Length of Visible Light 13h 02m
Length of Day
12h 10m
Waning Gibbous, 94% of the Moon is Illuminated
Sep 21
Waning Gibbous
Sep 26
Last Quarter
Oct 4
New
Oct 11
First Quarter
Oct 18
Full

Hourly Weather History & Observations

Time (EDT) Temp. Dew Point Humidity Pressure Visibility Wind Dir Wind Speed Gust Speed Precip Events Conditions
12:53 AM 72.0 °F 63.0 °F 73% 29.85 in 10.0 mi Calm Calm - N/A   Scattered Clouds
1:53 AM 71.1 °F 64.0 °F 78% 29.83 in 10.0 mi Calm Calm - 0.00 in Rain Light Rain
2:53 AM 69.1 °F 64.9 °F 87% 29.81 in 8.0 mi Calm Calm - 0.01 in Rain Light Rain
3:53 AM 69.1 °F 64.0 °F 84% 29.77 in 10.0 mi Calm Calm - 0.00 in Rain Light Rain
4:53 AM 69.1 °F 64.0 °F 84% 29.73 in 10.0 mi SSE 3.5 mph - 0.00 in   Scattered Clouds
5:53 AM 69.1 °F 64.9 °F 87% 29.70 in 8.0 mi Calm Calm - 0.02 in Rain Light Rain
6:53 AM 69.1 °F 64.9 °F 87% 29.70 in 5.0 mi South 6.9 mph - 0.07 in Rain Rain
7:29 AM 69.8 °F 64.4 °F 83% 29.76 in 2.0 mi West 5.8 mph - 0.13 in Rain Heavy Rain
7:37 AM 66.2 °F 64.4 °F 94% 29.78 in 1.5 mi NNW 16.1 mph 25.3 mph 0.29 in Rain Heavy Rain
7:53 AM 64.9 °F 62.1 °F 90% 29.75 in 2.0 mi NNW 9.2 mph 18.4 mph 0.67 in Rain Heavy Rain
8:07 AM 64.4 °F 62.6 °F 94% 29.78 in 3.0 mi NNW 5.8 mph - 0.11 in Rain Heavy Rain
8:21 AM 64.4 °F 64.4 °F 100% 29.79 in 2.0 mi Variable 3.5 mph - 0.17 in Rain Heavy Rain
8:30 AM 64.4 °F 64.4 °F 100% 29.79 in 2.0 mi WNW 3.5 mph - 0.21 in Rain Heavy Rain
8:53 AM 66.0 °F 63.0 °F 90% 29.77 in 3.0 mi SW 3.5 mph - 0.26 in Rain Rain
9:03 AM 66.2 °F 62.6 °F 88% 29.80 in 2.0 mi SSW 3.5 mph - 0.04 in Rain Heavy Rain
9:15 AM 66.2 °F 62.6 °F 88% 29.80 in 4.0 mi SE 3.5 mph - 0.06 in Rain Rain
9:53 AM 66.0 °F 63.0 °F 90% 29.79 in 9.0 mi SSW 3.5 mph - 0.09 in Rain Light Rain
10:27 AM 66.2 °F 64.4 °F 94% 29.82 in 6.0 mi West 3.5 mph - 0.03 in Rain Light Rain
10:36 AM 66.2 °F 62.6 °F 88% 29.81 in 6.0 mi SW 4.6 mph - 0.03 in Rain Light Rain
10:53 AM 66.0 °F 63.0 °F 90% 29.78 in 10.0 mi Calm Calm - 0.04 in Rain Light Rain
11:02 AM 66.2 °F 62.6 °F 88% 29.82 in 10.0 mi WSW 4.6 mph - 0.00 in Rain Light Rain
11:11 AM 66.2 °F 62.6 °F 88% 29.81 in 10.0 mi West 4.6 mph - 0.01 in Rain Light Rain
11:22 AM 66.2 °F 62.6 °F 88% 29.82 in 7.0 mi West 6.9 mph - 0.02 in Rain Light Rain
11:24 AM 66.2 °F 62.6 °F 88% 29.82 in 7.0 mi West 6.9 mph - 0.02 in Rain Light Rain
11:36 AM 66.2 °F 62.6 °F 88% 29.82 in 4.0 mi WSW 4.6 mph - 0.04 in Rain Rain
11:44 AM 66.2 °F 62.6 °F 88% 29.81 in 10.0 mi Calm Calm - 0.04 in Rain Light Rain
11:53 AM 68.0 °F 64.0 °F 87% 29.77 in 10.0 mi NNW 4.6 mph - 0.04 in Rain Light Rain
11:56 AM 68.0 °F 64.4 °F 88% 29.81 in 10.0 mi WNW 3.5 mph - 0.00 in   Overcast
12:22 PM 66.2 °F 62.6 °F 88% 29.82 in 10.0 mi WNW 3.5 mph - 0.00 in   Overcast
12:33 PM 66.2 °F 62.6 °F 88% 29.82 in 2.5 mi WNW 6.9 mph - 0.01 in Rain Light Rain
12:49 PM 66.2 °F 62.6 °F 88% 29.82 in 3.0 mi Calm Calm - 0.02 in Rain Light Rain
12:53 PM 66.0 °F 63.0 °F 90% 29.79 in 6.0 mi Calm Calm - 0.02 in Rain Light Rain
1:53 PM 68.0 °F 63.0 °F 84% 29.78 in 10.0 mi WSW 4.6 mph - 0.00 in   Overcast
2:01 PM 68.0 °F 62.6 °F 83% 29.82 in 2.5 mi West 6.9 mph - 0.02 in Rain Heavy Rain
2:16 PM 66.2 °F 62.6 °F 88% 29.81 in 7.0 mi WNW 3.5 mph - 0.03 in Rain Light Rain
2:29 PM 66.2 °F 62.6 °F 88% 29.81 in 6.0 mi WNW 10.4 mph - 0.04 in Rain Light Rain
2:37 PM 66.2 °F 62.6 °F 88% 29.81 in 4.0 mi NW 6.9 mph - 0.04 in Rain Light Rain
2:53 PM 66.0 °F 62.1 °F 87% 29.78 in 5.0 mi NW 6.9 mph - 0.04 in Rain Light Rain
3:45 PM 64.4 °F 60.8 °F 88% 29.81 in 10.0 mi NW 5.8 mph - 0.00 in   Overcast
3:53 PM 64.9 °F 60.1 °F 84% 29.78 in 10.0 mi NW 8.1 mph - 0.00 in   Overcast
4:07 PM 66.2 °F 60.8 °F 83% 29.81 in 10.0 mi NW 6.9 mph - N/A   Overcast
4:45 PM 69.8 °F 59.0 °F 68% 29.81 in 10.0 mi NW 8.1 mph - N/A   Overcast
4:53 PM 69.1 °F 59.0 °F 70% 29.78 in 10.0 mi WNW 8.1 mph - N/A   Overcast
5:53 PM 69.1 °F 54.0 °F 58% 29.78 in 10.0 mi NW 9.2 mph - N/A   Partly Cloudy
6:53 PM 68.0 °F 54.0 °F 61% 29.80 in 10.0 mi NNW 3.5 mph - N/A   Clear
7:53 PM 64.0 °F 54.0 °F 70% 29.82 in 10.0 mi NW 3.5 mph - N/A   Clear
8:53 PM 60.1 °F 55.0 °F 83% 29.83 in 10.0 mi Calm Calm - N/A   Clear
9:53 PM 57.9 °F 54.0 °F 87% 29.85 in 10.0 mi Calm Calm - N/A   Clear
10:53 PM 55.9 °F 53.1 °F 90% 29.86 in 10.0 mi Calm Calm - N/A   Clear
11:53 PM 55.9 °F 53.1 °F 90% 29.86 in 8.0 mi Calm Calm - 0.01 in   Clear